Location: Wapato
(46.4478°N, 120.4212°W)
Time: 01:42:45
(UTC+00:00)

Tiros 1 despin weight - All Passes

Search period start: 14 May 2026 00:00
Search period end: 24 May 2026 00:00
Orbit: 555 x 591 km, 48.2° (Epoch: 12 May)

Date Brightness Start Highest point End Pass type
(mag) Time Alt. Az. Time Alt. Az. Time Alt. Az.
14 May - 12:02:01 10° SSE 12:02:57 11° SE 12:03:53 10° ESE daylight
14 May - 13:38:40 10° SW 13:42:42 44° SSE 13:46:43 10° E daylight
14 May - 15:18:55 10° W 15:23:08 77° N 15:27:20 10° ENE daylight
14 May - 16:59:38 10° WNW 17:03:51 76° N 17:08:04 10° E daylight
14 May - 18:40:17 10° WNW 18:44:18 46° SSW 18:48:18 10° SE daylight
14 May - 20:22:54 10° WSW 20:24:03 11° SW 20:25:12 10° SSW daylight
15 May - 12:01:52 10° S 12:04:30 16° SE 12:07:08 10° E daylight
15 May - 13:40:17 10° SW 13:44:27 60° SSE 13:48:36 10° ENE daylight
15 May - 15:20:47 10° W 15:25:00 70° N 15:29:12 10° E daylight
15 May - 17:01:29 10° WNW 17:05:42 86° NNE 17:09:54 10° ESE daylight
15 May - 18:42:13 10° W 18:46:00 33° SSW 18:49:46 10° SSE daylight
16 May - 12:02:44 10° SSW 12:06:07 23° SE 12:09:29 10° E daylight
16 May - 13:42:00 10° WSW 13:46:14 77° SSE 13:50:26 10° ENE daylight
16 May - 15:22:40 10° W 15:26:53 68° N 15:31:04 10° E daylight
16 May - 17:03:19 10° WNW 17:07:31 79° SSW 17:11:43 10° ESE daylight
16 May - 18:44:16 10° W 18:47:39 24° SW 18:51:01 10° SSE daylight
17 May - 12:03:57 10° SSW 12:07:46 32° SSE 12:11:33 10° E daylight
17 May - 13:43:47 10° WSW 13:48:02 88° NNW 13:52:16 10° ENE daylight
17 May - 15:24:32 10° W 15:28:44 70° N 15:32:56 10° E daylight
17 May - 17:05:09 10° WNW 17:09:18 61° SSW 17:13:26 10° SE daylight
17 May - 18:46:34 10° W 18:49:15 17° SW 18:51:55 10° S daylight
18 May - 10:28:41 10° SSE 10:29:41 11° SE 10:30:41 10° ESE visible
18 May - 12:05:23 10° SW 12:09:26 44° SSE 12:13:28 10° E daylight
18 May - 13:45:37 10° W 13:49:52 77° NNW 13:54:05 10° ENE daylight
18 May - 15:26:22 10° WNW 15:30:35 76° N 15:34:47 10° E daylight
18 May - 17:07:00 10° WNW 17:11:02 46° SSW 17:15:03 10° SE daylight
18 May - 18:49:38 10° WSW 18:50:47 11° SW 18:51:57 10° SSW daylight
19 May - 10:28:33 10° S 10:31:13 16° SE 10:33:53 10° E visible
19 May - 12:06:58 10° SW 12:11:10 60° SSE 12:15:20 10° ENE daylight
19 May - 13:47:28 10° W 13:51:43 70° N 13:55:56 10° E daylight
19 May - 15:28:11 10° WNW 15:32:25 86° N 15:36:38 10° ESE daylight
19 May - 17:08:55 10° W 17:12:43 33° SSW 17:16:30 10° SSE daylight
20 May - 10:29:24 10° SSW 10:32:48 23° SE 10:36:11 10° E visible
20 May - 12:08:40 10° WSW 12:12:55 77° SSE 12:17:09 10° ENE daylight
20 May - 13:49:20 10° W 13:53:34 68° N 13:57:46 10° E daylight
20 May - 15:30:00 10° WNW 15:34:13 79° SSW 15:38:25 10° ESE daylight
20 May - 17:10:58 10° W 17:14:21 24° SW 17:17:44 10° SSE daylight
21 May - 10:30:35 10° SSW 10:34:26 32° SSE 10:38:14 10° E visible
21 May - 12:10:26 10° WSW 12:14:43 88° NNW 12:18:58 10° ENE daylight
21 May - 13:51:11 10° W 13:55:26 70° N 13:59:38 10° E daylight
21 May - 15:31:49 10° WNW 15:35:59 62° SSW 15:40:07 10° SE daylight
21 May - 17:13:14 10° W 17:15:56 17° SW 17:18:36 10° S daylight
22 May - 08:55:16 10° SSE 08:56:20 11° SE 08:57:24 10° ESE visible
22 May - 10:32:00 10° SW 10:36:05 44° SSE 10:40:09 10° ENE visible
22 May - 12:12:15 10° W 12:16:32 77° N 12:20:46 10° ENE daylight
22 May - 13:53:00 10° WNW 13:57:15 76° N 14:01:28 10° E daylight
22 May - 15:33:39 10° WNW 15:37:42 46° SSW 15:41:43 10° SE daylight
22 May - 17:16:14 10° WSW 17:17:27 11° SW 17:18:39 10° SSW daylight
23 May - 08:55:09 10° S 08:57:51 16° SE 09:00:32 10° E visible
23 May - 10:33:34 10° SW 10:37:48 60° SSE 10:42:00 10° ENE visible
23 May - 12:14:05 10° W 12:18:22 71° N 12:22:35 10° E daylight
23 May - 13:54:48 10° WNW 13:59:04 86° N 14:03:17 10° ESE daylight
23 May - 15:35:33 10° W 15:39:22 33° SSW 15:43:09 10° SSE daylight
